Вернуться в каталог

DELTA 1 DEB

АктивенPO
NORAD 42655·DEBRIS·🇺🇸 United States

Запущен Jun 12, 1975 с Vandenberg Space Force Base

Loading…

Ближайшие Пролёты (ближайшие 24 часа)

TLE

УстаревающийSource: Space-Track

Эпоха: Sep 4, 2026, 17:10 UTC

1 42655U 75052MQ  26247.71596662 -.00000544  00000-0 -80275-3 0  9994
2 42655  99.6059 217.1386 0568087 286.3280  67.6102 12.98686166606033

Отслеживайте DELTA 1 DEB в реальном времени с AllMySat

Download on the App Store